N7BTW-13 Weather Reports


time (UTC)temp
F
wind
direction
speed
knots
gust
knots
rain 1hr
in
rain 24hr
in
rain mn
in
humidity
%
barometer
mb
20260507065009 53 23 0.9 1.7 0.00 0.00 0.00 89 1022.2
20260507064008 53 0.0 0.0 0.00 0.00 0.00 89 1022.3
20260507063009 53 0.0 0.0 0.00 0.00 0.00 89 1022.3
20260507062007 53 0.0 0.0 0.00 0.00 0.00 90 1022.3
20260507061009 52 289 0.9 1.7 0.00 0.00 0.00 91 1022.4
20260507060008 52 289 0.9 1.7 0.00 0.00 0.00 92 1022.4
20260507055008 52 308 0.9 2.6 0.00 0.00 0.00 92 1022.4
20260507054007 52 327 0.9 3.5 0.00 0.00 0.00 92 1022.3
20260507053012 52 303 0.9 2.6 0.00 0.00 0.00 91 1022.2
20260507052008 53 113 0.0 1.7 0.00 0.00 0.00 89 1022.2
20260507051007 53 0.0 0.0 0.00 0.00 0.00 87 1022.2
20260507050013 54 0.0 0.0 0.00 0.00 0.00 86 1022.3
20260507045006 55 0.0 0.0 0.00 0.00 0.00 85 1022.2
20260507044008 56 323 0.0 1.7 0.00 0.00 0.00 83 1022.2
20260507043007 57 293 0.0 1.7 0.00 0.00 0.00 83 1022.1
20260507042008 57 248 0.0 1.7 0.00 0.00 0.00 82 1022.0
20260507041009 58 38 0.9 3.5 0.00 0.00 0.00 82 1022.0
20260507040008 58 349 0.9 2.6 0.00 0.00 0.00 82 1021.8
20260507035006 58 223 0.9 1.7 0.00 0.00 0.00 80 1021.7
20260507034009 59 254 1.7 2.6 0.00 0.00 0.00 81 1021.6
20260507033007 59 0.0 0.0 0.00 0.00 0.00 81 1021.4
20260507032008 60 0.0 0.0 0.00 0.00 0.00 82 1021.3
20260507031008 60 0.0 0.0 0.00 0.00 0.00 81 1021.2
20260507030007 61 318 0.9 3.5 0.00 0.00 0.00 80 1021.1
20260507025007 62 81 1.7 3.5 0.00 0.00 0.00 79 1020.9
20260507024006 63 15 1.7 4.3 0.00 0.00 0.00 77 1020.8
20260507023007 64 330 1.7 2.6 0.00 0.00 0.00 76 1020.8
20260507022008 63 19 2.6 3.5 0.00 0.00 0.00 77 1020.7
20260507021012 63 10 1.7 3.5 0.00 0.00 0.00 78 1020.6
20260507020006 63 317 2.6 3.5 0.00 0.00 0.00 77 1020.7
20260507015009 64 4 1.7 2.6 0.00 0.00 0.00 75 1020.7
20260507014007 65 308 2.6 4.3 0.00 0.00 0.00 74 1020.8
20260507013007 64 21 2.6 4.3 0.00 0.00 0.00 77 1020.7
20260507012008 64 332 1.7 2.6 0.00 0.00 0.00 76 1020.8
20260507011007 64 28 2.6 5.2 0.00 0.00 0.00 76 1020.8
20260507010007 66 11 1.7 3.5 0.00 0.00 0.00 74 1020.7
20260507005006 67 358 1.7 2.6 0.00 0.00 0.00 73 1020.7
20260507004006 67 21 1.7 3.5 0.00 0.00 0.00 73 1020.6
20260507003006 69 346 2.6 4.3 0.00 0.00 0.00 70 1020.6
20260507002013 68 322 2.6 4.3 0.00 0.00 0.00 72 1020.5
20260507001006 67 342 1.7 2.6 0.00 0.00 0.00 74 1020.6
20260507000007 68 354 1.7 3.5 0.00 0.00 0.00 74 1020.6
20260506235005 67 42 1.7 2.6 0.00 0.00 0.00 75 1020.6
20260506234005 68 320 1.7 3.5 0.00 0.00 0.00 76 1020.5
20260506233008 68 345 1.7 2.6 0.00 0.00 0.00 76 1020.5
20260506232008 68 32 1.7 3.5 0.00 0.00 0.00 75 1020.5
20260506231009 69 12 1.7 4.3 0.00 0.00 0.00 74 1020.6
20260506230006 69 306 0.9 2.6 0.00 0.00 0.00 74 1020.5
20260506225008 69 356 1.7 2.6 0.00 0.00 0.00 72 1020.7
20260506224006 71 318 0.9 1.7 0.00 0.00 0.00 71 1020.8
20260506223007 72 345 0.9 3.5 0.00 0.00 0.00 71 1020.8
20260506222005 73 319 1.7 3.5 0.00 0.00 0.00 68 1020.8
20260506221008 70 355 1.7 3.5 0.00 0.00 0.00 73 1020.9
20260506220010 69 8 1.7 2.6 0.00 0.00 0.00 73 1020.9
20260506215010 70 13 2.6 4.3 0.00 0.00 0.00 71 1020.9
20260506214010 73 3 2.6 3.5 0.00 0.00 0.00 68 1020.8
20260506213009 70 253 1.7 2.6 0.00 0.00 0.00 70 1020.9
20260506212008 70 7 0.9 3.5 0.00 0.00 0.00 68 1020.9
20260506211006 71 203 0.0 1.7 0.00 0.00 0.00 71 1021.0
20260506210006 69 308 1.7 2.6 0.00 0.00 0.00 70 1021.1
20260506205007 68 227 1.7 2.6 0.00 0.00 0.00 71 1021.2
20260506204010 68 238 1.7 2.6 0.00 0.00 0.00 73 1021.2
20260506203005 69 209 1.7 3.5 0.00 0.00 0.00 73 1021.2
20260506202007 68 221 1.7 2.6 0.00 0.00 0.00 74 1021.2
20260506201010 67 177 1.7 2.6 0.00 0.00 0.00 74 1021.1
20260506200006 68 310 1.7 2.6 0.00 0.00 0.00 75 1021.2
20260506195012 67 245 2.6 4.3 0.00 0.00 0.00 75 1021.4
20260506194008 69 140 2.6 4.3 0.00 0.00 0.00 72 1021.4
20260506193006 69 158 1.7 3.5 0.00 0.00 0.00 76 1021.4
20260506192007 66 43 0.9 3.5 0.00 0.00 0.00 79 1021.6
20260506191008 65 360 0.9 1.7 0.00 0.00 0.00 80 1021.6
20260506190009 64 315 1.7 3.5 0.00 0.00 0.00 81 1021.6
20260506185011 64 146 0.0 1.7 0.00 0.00 0.00 83 1021.6
20260506184009 63 203 0.0 2.6 0.00 0.00 0.00 80 1021.6
20260506183008 64 217 0.9 2.6 0.00 0.00 0.00 79 1021.5
20260506182008 64 252 1.7 2.6 0.00 0.00 0.00 79 1021.5
20260506181011 63 272 1.7 2.6 0.00 0.00 0.00 81 1021.4
20260506180007 63 1 0.9 1.7 0.00 0.00 0.00 82 1021.5
20260506175010 63 0.0 0.0 0.00 0.00 0.00 82 1021.5
20260506174009 62 239 1.7 1.7 0.00 0.00 0.00 81 1021.5
20260506173006 62 8 0.0 1.7 0.00 0.00 0.00 82 1021.4
20260506172006 61 219 0.9 1.7 0.00 0.00 0.00 83 1021.3
20260506171007 61 180 0.9 1.7 0.00 0.00 0.00 84 1021.4
20260506170008 61 180 0.9 2.6 0.00 0.00 0.00 83 1021.3
20260506165012 60 0.0 0.0 0.00 0.00 0.00 86 1021.3
20260506164008 60 0.0 0.0 0.00 0.00 0.00 85 1021.3
20260506163006 59 180 0.0 1.7 0.00 0.00 0.00 88 1021.5
20260506162007 59 0.0 0.0 0.00 0.00 0.00 87 1021.5
20260506161007 59 180 0.0 0.9 0.00 0.00 0.00 89 1021.4
20260506160014 59 180 0.9 2.6 0.00 0.00 0.00 89 1021.3
20260506155007 58 0.0 0.0 0.00 0.00 0.00 90 1020.9
20260506154005 58 180 0.9 2.6 0.00 0.00 0.00 90 1020.8
20260506153008 58 180 0.9 1.7 0.00 0.00 0.00 90 1020.8
20260506152009 58 180 0.9 1.7 0.00 0.00 0.00 89 1020.8
20260506151011 57 180 0.9 1.7 0.00 0.00 0.00 90 1020.8
20260506150008 57 0.0 0.0 0.00 0.00 0.00 92 1021.2
20260506145007 57 0.0 0.9 0.00 0.00 0.00 94 1021.3
20260506144009 56 180 0.0 2.6 0.00 0.00 0.00 96 1021.2
20260506143006 56 180 0.0 1.7 0.00 0.00 0.00 96 1021.2
20260506142008 56 0.0 0.9 0.00 0.00 0.00 97 1021.0
20260506141012 56 0.0 0.0 0.00 0.00 0.00 98 1020.8
20260506140006 55 0.0 0.0 0.00 0.00 0.00 98 1020.3
20260506135009 55 0.0 0.0 0.00 0.00 0.00 98 1020.3
20260506134007 54 0.0 0.0 0.00 0.00 0.00 98 1020.4
20260506133006 54 0.0 0.0 0.00 0.00 0.00 98 1020.3
20260506132010 53 0.0 0.0 0.00 0.00 0.00 98 1020.2
20260506131008 53 0.0 0.0 0.00 0.00 0.00 97 1020.2
20260506130007 53 0.0 0.0 0.00 0.00 0.00 96 1020.0
20260506125009 53 0.0 0.0 0.00 0.00 0.00 95 1019.9
20260506124007 53 0.0 0.0 0.00 0.00 0.00 95 1019.8
20260506123008 54 0.0 0.0 0.00 0.00 0.00 94 1019.7
20260506122009 55 0.0 0.0 0.00 0.00 0.00 94 1019.6
20260506121007 55 0.0 0.0 0.00 0.00 0.00 95 1019.7
20260506120007 56 0.0 0.0 0.00 0.00 0.00 95 1019.7
20260506115008 56 0.0 0.0 0.00 0.00 0.00 95 1019.7
20260506114008 56 180 0.0 0.9 0.00 0.00 0.00 95 1019.6
20260506113006 56 0.0 0.0 0.00 0.00 0.00 95 1019.5
20260506112007 56 0.0 0.0 0.00 0.00 0.00 95 1019.5
20260506111005 56 0.0 0.0 0.00 0.00 0.00 95 1019.5
20260506110008 56 0.0 0.0 0.00 0.00 0.00 95 1019.3
20260506105009 56 0.0 0.0 0.00 0.00 0.00 95 1019.1
20260506104009 56 0.0 0.0 0.00 0.00 0.00 95 1019.0
20260506103008 56 0.0 0.0 0.00 0.00 0.00 95 1019.0
20260506102009 56 0.0 0.0 0.00 0.00 0.00 94 1018.8
20260506101012 56 0.0 0.0 0.00 0.00 0.00 95 1018.7
20260506100007 56 0.0 0.0 0.00 0.00 0.00 94 1018.6
20260506095008 56 0.0 0.0 0.00 0.00 0.00 94 1018.5
20260506094008 56 0.0 0.0 0.00 0.00 0.00 94 1018.4
20260506093009 56 0.0 0.0 0.00 0.00 0.00 93 1018.4
20260506092006 56 0.0 0.0 0.00 0.00 0.00 93 1018.4
20260506091006 57 180 0.0 0.9 0.00 0.00 0.00 94 1018.3
20260506090008 57 0.0 0.0 0.00 0.00 0.00 93 1018.3
20260506085007 57 0.0 0.0 0.00 0.00 0.00 93 1018.3
20260506084009 57 0.0 0.0 0.00 0.00 0.00 92 1018.3
20260506083009 57 0.0 0.0 0.00 0.00 0.00 92 1018.2
20260506082009 57 0.0 0.0 0.00 0.00 0.00 92 1018.2
20260506081006 57 0.0 0.0 0.00 0.00 0.00 92 1018.2
20260506073007 58 0.0 0.0 0.00 0.00 0.00 91 1017.9
20260506072008 58 0.0 0.0 0.00 0.00 0.00 92 1017.8
20260506071009 58 270 0.0 1.7 0.00 0.00 0.00 91 1017.8